Regional Weather Roundup
Issued by NWS

Home | Current Version | Previous Version | Text Only | Print | Product List | Glossary On
Versions: 1 2 3 4 5 6 7 8 9 10 11 12 13 14 15 16 17 18 19 20 21 22 23 24 25 26 27
000
ASUS45 KBOI 251610
RWRID

IDAHO REGIONAL WEATHER ROUNDUP
NATIONAL WEATHER SERVICE BOISE ID
1000 AM MDT TUE JUL 25 2017

NOTE: "FAIR" INDICATES FEW OR NO CLOUDS BELOW 12000 FEET
WITH NO SIGNIFICANT WEATHER AND/OR OBSTRUCTIONS TO VISIBILITY

IDZ012-014-251700-
SOUTHWEST IDAHO


CITY           SKY/WX    TMP DP  RH WIND       PRES   REMARKS
BOISE          CLOUDY    75  46  35 NW6       30.00R
CALDWELL       CLOUDY    72  51  47 NW7       29.98R
MOUNTAIN HOME  PTSUNNY   80  49  34 CALM      30.00R
$$

IDZ016-017-251700-
SOUTHCENTRAL IDAHO


CITY           SKY/WX    TMP DP  RH WIND       PRES   REMARKS
BURLEY         CLOUDY    70  57  63 SW10      30.07R
JEROME         CLOUDY    77  57  50 CALM      30.08R
TWIN FALLS     CLOUDY    81  52  36 SE12      30.06F
$$

IDZ019>023-251700-
SOUTHEAST IDAHO


CITY           SKY/WX    TMP DP  RH WIND       PRES   REMARKS
IDAHO FALLS    CLOUDY    73  53  49 S9        30.11R
POCATELLO      CLOUDY    80  51  36 S10       30.11R
REXBURG        CLOUDY    69  53  56 VRB5      30.12R
$$

IDZ006-010-011-018-031-032-251700-
CENTRAL IDAHO MOUNTAINS


CITY           SKY/WX    TMP DP  RH WIND       PRES   REMARKS
MCCALL         CLOUDY    68  48  48 CALM      30.10R
HAILEY         LGT RAIN  64  55  72 NW12      30.20R
STANLEY          N/A     61  48  62 SE7       30.25R
SALMON         NOT AVBL
CHALLIS        PTSUNNY   69  51  52 CALM      30.13R
$$

IDZ002-004-006-007-026-251700-
NORTHERN IDAHO


CITY           SKY/WX    TMP DP  RH WIND       PRES   REMARKS
LEWISTON       SUNNY     71  42  35 E5        30.00S
LOWELL           N/A     68  45  43 CALM      30.02F
COEUR D`ALENE  SUNNY     71  45  39 NE9       30.05R
MULLAN PASS    SUNNY     62  31  31 N3        30.19R
$$




USA.gov is the U.S. government's official web portal to all federal, state and local government web resources and services.